LY3PGO-4 Weather Reports


time (UTC)temp
F
wind
direction
speed
knots
gust
knots
rain 1hr
in
rain 24hr
in
rain mn
in
humidity
%
barometer
mb
20260508115830 55 67 4.3 12.2 0.00 0.00 0.00 62 1018.3
20260508114823 55 112 1.7 9.6 0.00 0.00 0.00 63 1018.4
20260508113818 55 135 6.1 14.8 0.00 0.00 0.00 62 1018.5
20260508112814 55 112 3.5 11.3 0.00 0.00 0.00 63 1018.2
20260508111804 55 90 2.6 14.8 0.00 0.00 0.00 63 1018.3
20260508110758 55 90 3.5 11.3 0.00 0.00 0.00 62 1018.3
20260508105754 55 90 3.5 9.6 0.00 0.00 0.00 63 1018.0
20260508104747 56 112 5.2 9.6 0.00 0.00 0.00 63 1018.1
20260508103744 55 112 2.6 6.1 0.00 0.00 0.00 64 1018.1
20260508102734 55 135 1.7 12.2 0.00 0.00 0.00 64 1018.1
20260508101728 54 157 3.5 13.0 0.00 0.00 0.00 63 1018.2
20260508100721 55 90 4.3 12.2 0.00 0.00 0.00 64 1018.4
20260508095716 55 112 4.3 11.3 0.00 0.00 0.00 63 1018.3
20260508094714 55 90 3.5 11.3 0.00 0.00 0.00 64 1017.8
20260508093703 56 112 3.5 9.6 0.00 0.00 0.00 64 1018.0
20260508092657 55 157 3.5 9.6 0.00 0.00 0.00 64 1017.7
20260508091651 54 180 3.5 12.2 0.00 0.00 0.00 65 1018.0
20260508090645 54 112 2.6 12.2 0.00 0.00 0.00 66 1017.7
20260508085641 53 67 3.5 11.3 0.00 0.00 0.00 66 1018.0
20260508084632 53 135 3.5 7.0 0.00 0.00 0.00 67 1018.1
20260508083626 53 135 1.7 7.0 0.00 0.00 0.00 68 1017.9
20260508082619 53 112 3.5 12.2 0.00 0.00 0.00 67 1017.9
20260508081613 53 90 6.1 12.2 0.00 0.00 0.00 66 1017.8
20260508080610 53 135 3.5 11.3 0.00 0.01 0.00 67 1017.8
20260508075603 52 180 5.2 11.3 0.00 0.01 0.00 68 1017.8
20260508074554 53 135 2.6 9.6 0.00 0.01 0.00 69 1017.7
20260508073549 52 90 6.1 11.3 0.00 0.01 0.00 68 1017.7
20260508072542 52 135 6.1 13.0 0.00 0.02 0.00 68 1017.9
20260508071540 52 112 3.5 17.4 0.00 0.02 0.00 70 1017.6
20260508070530 51 67 4.3 13.9 0.00 0.02 0.00 70 1017.7
20260508065524 51 112 7.0 11.3 0.00 0.02 0.00 71 1017.6
20260508064518 51 112 7.0 13.0 0.00 0.04 0.00 71 1017.4
20260508063512 50 112 6.1 14.8 0.00 0.06 0.00 72 1017.6
20260508062510 49 112 3.5 12.2 0.00 0.09 0.00 75 1017.3
20260508061459 48 135 4.3 12.2 0.00 0.13 0.00 77 1017.5
20260508060453 47 112 5.2 13.0 0.00 0.17 0.00 79 1017.3
20260508055447 48 90 3.5 13.9 0.00 0.18 0.00 80 1017.3
20260508054441 47 135 2.6 12.2 0.00 0.18 0.00 82 1017.3
20260508053437 46 112 2.6 11.3 0.00 0.20 0.00 83 1017.2
20260508052428 46 157 3.5 12.2 0.00 0.20 0.00 84 1017.3
20260508051422 45 90 3.5 11.3 0.00 0.20 0.00 86 1017.1
20260508050416 45 90 3.5 9.6 0.00 0.20 0.00 87 1017.1
20260508045411 45 135 1.7 9.6 0.00 0.20 0.00 89 1017.1
20260508044407 45 135 1.7 13.0 0.00 0.20 0.00 89 1017.2
20260508043357 44 157 2.6 9.6 0.00 0.20 0.00 89 1017.1
20260508042351 44 135 1.7 9.6 0.00 0.20 0.00 91 1017.3
20260508041344 44 157 3.5 7.8 0.00 0.20 0.00 91 1017.1
20260508040339 44 135 3.5 9.6 0.00 0.20 0.00 92 1016.7
20260508035336 44 135 1.7 7.0 0.00 0.20 0.00 92 1016.9
20260508034326 44 135 1.7 7.8 0.00 0.20 0.00 92 1016.6
20260508033320 44 135 1.7 7.8 0.00 0.20 0.00 92 1016.6
20260508032316 45 157 1.7 6.1 0.00 0.20 0.00 92 1016.6
20260508031308 45 135 1.7 6.1 0.00 0.20 0.00 92 1016.5
20260508030304 45 135 1.7 6.1 0.00 0.20 0.00 92 1016.4
20260508025255 45 112 1.7 5.2 0.00 0.20 0.00 92 1016.3
20260508024249 45 157 1.7 5.2 0.00 0.20 0.00 92 1016.7
20260508023243 45 67 0.9 7.8 0.00 0.20 0.00 92 1016.4
20260508022236 45 135 3.5 7.8 0.00 0.20 0.00 92 1016.2
20260508021233 45 135 1.7 7.0 0.00 0.20 0.00 93 1016.0
20260508020224 45 112 3.5 7.0 0.00 0.20 0.00 93 1016.1
20260508015219 46 135 1.7 3.5 0.00 0.20 0.00 93 1016.1
20260508014211 45 135 1.7 6.1 0.00 0.20 0.00 93 1016.2
20260508013205 46 112 0.9 6.1 0.00 0.20 0.00 93 1016.3
20260508012203 46 135 1.7 3.5 0.00 0.20 0.00 93 1015.9
20260508011153 46 135 1.7 5.2 0.00 0.20 0.00 93 1016.0
20260508010148 46 112 1.7 6.1 0.00 0.20 0.00 93 1015.9
20260508005140 46 135 1.7 6.1 0.00 0.20 0.00 93 1015.4
20260508004134 46 180 1.7 5.2 0.00 0.20 0.00 93 1016.0
20260508003133 46 157 1.7 7.0 0.00 0.20 0.00 92 1015.9
20260508002123 46 157 1.7 6.1 0.00 0.20 0.00 92 1015.8
20260508001115 46 135 0.9 5.2 0.00 0.20 0.00 92 1015.9
20260508000110 46 135 1.7 5.2 0.00 0.20 0.00 93 1016.0
20260507235104 46 112 0.9 3.5 0.00 0.20 0.00 93 1015.8
20260507234100 46 135 1.7 5.2 0.00 0.20 0.00 93 1015.5
20260507233051 46 180 2.6 6.1 0.00 0.20 0.00 93 1015.8
20260507232045 46 180 0.9 6.1 0.00 0.20 0.00 93 1015.8
20260507231038 46 157 1.7 3.5 0.00 0.20 0.00 93 1015.8
20260507230033 46 112 1.7 5.2 0.00 0.20 0.00 93 1015.6
20260507225030 46 157 0.0 6.1 0.00 0.20 0.00 93 1015.5
20260507224020 46 135 1.7 5.2 0.00 0.20 0.00 93 1015.5
20260507223015 46 112 1.7 7.0 0.00 0.20 0.00 93 1015.2
20260507222007 46 112 1.7 5.2 0.00 0.20 0.00 93 1015.2
20260507221001 46 180 0.0 5.2 0.00 0.20 0.00 93 1015.3
20260507215958 46 157 0.0 5.2 0.00 0.20 0.00 93 1015.6
20260507214949 46 90 1.7 3.5 0.00 0.20 0.00 94 1015.3
20260507213942 46 135 0.9 6.1 0.00 0.20 0.00 94 1015.2
20260507212937 46 135 1.7 5.2 0.00 0.20 0.00 94 1015.0
20260507211932 47 135 1.7 3.5 0.00 0.20 0.00 94 1015.1
20260507210928 47 135 0.9 3.5 0.00 0.20 0.00 94 1014.8
20260507205918 47 135 1.7 7.0 0.00 0.20 0.20 94 1014.7
20260507204912 47 135 1.7 7.0 0.00 0.20 0.20 94 1014.8
20260507203906 47 90 1.7 6.1 0.00 0.20 0.20 94 1014.6
20260507202859 47 135 0.9 5.2 0.00 0.20 0.20 94 1014.6
20260507201856 47 180 0.9 6.1 0.00 0.20 0.20 94 1014.5
20260507200847 47 157 2.6 7.0 0.00 0.20 0.20 94 1014.4
20260507195841 47 135 1.7 6.1 0.00 0.20 0.20 94 1014.4
20260507194836 47 135 2.6 5.2 0.00 0.20 0.20 94 1014.1
20260507193829 47 157 1.7 3.5 0.00 0.20 0.20 94 1014.1
20260507192824 47 157 0.9 5.2 0.00 0.20 0.20 94 1014.2
20260507191816 47 157 1.7 3.5 0.00 0.20 0.20 94 1013.9
20260507190810 47 180 0.9 3.5 0.00 0.20 0.20 94 1013.7
20260507185804 48 135 1.7 5.2 0.00 0.20 0.20 93 1013.8
20260507184758 48 180 0.0 3.5 0.00 0.20 0.20 93 1013.8
20260507183755 48 135 0.9 5.2 0.00 0.20 0.20 93 1013.7
20260507182745 48 135 0.0 3.5 0.00 0.20 0.20 92 1013.7
20260507181740 48 135 1.7 5.2 0.00 0.20 0.20 92 1013.6
20260507180733 48 135 0.0 3.5 0.00 0.21 0.20 93 1013.5
20260507175726 48 157 1.7 3.5 0.00 0.21 0.20 93 1013.4
20260507174724 48 157 0.9 5.2 0.00 0.21 0.20 93 1013.2
20260507173714 48 135 1.7 3.5 0.00 0.21 0.20 94 1013.1
20260507172708 48 135 0.9 3.5 0.00 0.21 0.20 94 1012.9
20260507171702 48 135 1.7 6.1 0.00 0.21 0.20 95 1013.0
20260507170655 47 157 1.7 3.5 0.00 0.21 0.20 96 1012.8
20260507165653 47 157 1.7 7.8 0.00 0.21 0.20 96 1012.5
20260507164644 47 135 0.9 3.5 0.00 0.21 0.20 97 1012.3
20260507163637 47 135 1.7 6.1 0.00 0.21 0.20 97 1012.2
20260507162630 47 157 1.7 5.2 0.00 0.21 0.20 97 1012.1
20260507161624 48 135 0.9 5.2 0.00 0.21 0.20 97 1012.2
20260507160621 48 157 1.7 3.5 0.00 0.21 0.20 97 1012.1
20260507155612 48 135 2.6 7.8 0.00 0.21 0.20 97 1012.0
20260507154606 48 135 0.9 7.0 0.00 0.21 0.20 97 1012.1
20260507153559 48 135 0.9 1.7 0.00 0.21 0.20 97 1012.1
20260507152553 48 157 1.7 5.2 0.00 0.21 0.20 97 1012.3
20260507151551 48 225 1.7 6.1 0.00 0.21 0.20 96 1012.2
20260507150541 48 180 0.0 3.5 0.00 0.21 0.20 96 1012.0
20260507145535 48 157 1.7 3.5 0.00 0.21 0.20 96 1012.0
20260507144529 49 202 0.9 7.0 0.00 0.21 0.20 95 1011.8
20260507143523 49 180 0.0 5.2 0.00 0.21 0.20 95 1011.6
20260507142520 49 157 1.7 6.1 0.00 0.21 0.20 95 1011.4
20260507141510 49 157 0.0 3.5 0.00 0.21 0.20 95 1011.2
20260507140505 49 157 0.9 5.2 0.00 0.21 0.20 95 1011.1
20260507135458 49 180 1.7 5.2 0.00 0.21 0.20 95 1011.3
20260507134452 49 202 1.7 3.5 0.00 0.21 0.20 95 1011.2
20260507133448 49 157 0.9 3.5 0.00 0.21 0.20 95 1010.9
20260507132439 48 157 0.9 5.2 0.00 0.21 0.20 95 1011.0
20260507131433 49 157 1.7 5.2 0.00 0.21 0.20 95 1010.9
20260507130427 49 157 0.9 3.5 0.00 0.21 0.20 95 1010.7
20260507125420 49 180 0.0 5.2 0.00 0.21 0.20 95 1010.9
20260507124417 48 202 2.6 3.5 0.00 0.21 0.20 95 1010.5
20260507123408 49 180 1.7 3.5 0.00 0.21 0.20 95 1010.7
20260507122402 49 202 0.0 5.2 0.00 0.21 0.20 95 1010.3
20260507121357 49 180 0.9 5.2 0.00 0.21 0.20 95 1010.4
20260507120349 49 157 0.9 3.5 0.00 0.21 0.20 96 1010.4